Location: Lane
(33.5226°N, 79.8788°W)
Time: 04:06:54
(UTC+00:00)

Tiros 1 despin weight - Pass Details

Date: 07 October 2022
Orbit: 590 x 637 km, 48.2° (Epoch: 30 November)

Event Time Altitude Azimuth Distance (km) Brightness Sun altitude
Rises 19:18:15 0° 247° (WSW) 2,812 ? 40.0°
Reaches altitude 10° 19:20:35 10° 253° (WSW) 1,917 ? 39.6°
Maximum altitude 19:24:48 45° 327° (NNW) 811 ? 39.0°
Drops below altitude 10° 19:29:06 10° 41° (NE) 1,948 ? 38.4°
Sets 19:31:30 0° 48° (NE) 2,862 ? 38.0°
